Live Position
Loading 3D Globe...
About Beidou DW 39
Group: 3 satellites
Description loading...
Upcoming Passes
Passes for default location (London). Set your location on the main map for personalized predictions.
Altitude History
Loading altitude history...
No altitude history available
Two-Line Element Set
1 43648U 18078B 26111.76946696 -.00000037 00000-0 00000+0 0 9993
2 43648 54.1378 301.9641 0005259 48.5882 311.4534 1.86232145 51127
Epoch: Apr 21, 2026 •
Age: 23 hours
Current Status
Altitude 21557.7 km
Velocity 3.78 km/s
Sub-Earth Point -53.81°S,
112.12°E
Launch Date Oct 15, 2018
Age 7.5 years
Type navigation
Technical Details
Classification Payload
Mass 1014.00 kg
Dry Mass 850.00 kg
Total Mass 1014.00 kg
Length 2.20 m
Diameter 1.70 m
Span 10.00 m
Shape Box + 2 Pan
Manufacturer SECM
Bus Type BD-3M/SAR
Phase Status In Orbit
Owner/State CNSA/CN
Most Searched
Loading...